Hourly Data Report for October 30, 2015

All times are specified in Local Standard Time (LST). Add 1 hour to adjust for Daylight Saving Time where and when it is observed.

FREDERICTON
NEW BRUNSWICK

45°52'08.000" N
66°32'14.000" W
20.70 m
8101505
71700
YFC

Download Data

Hourly Data (October 2015)
Hourly Data Report for October 30, 2015
Temp Definition
°C
Dew Point Temp Definition
°C
Rel Hum Definition
%
Wind Dir Definition
10's deg

Wind Spd Definition
km/h
Visibility Definition
km
Stn Press Definition
kPa
Hmdx Definition


Wind Chill Definition


Weather Definition


TIME
00:00 Legend Double Dagger 8.8 4.7 75 26 9 16.1 99.23     LegendNANA
01:00 Legend Double Dagger 7.9 4.7 80 21 17 16.1 99.24     LegendNANA
02:00 Legend Double Dagger 7.9 3.4 73 23 22 16.1 99.26     LegendNANA
03:00 Legend Double Dagger 7.1 2.0 70 23 26 16.1 99.26     LegendNANA
04:00 Legend Double Dagger 5.6 0.6 70 24 18 16.1 99.35     LegendNANA
05:00 Legend Double Dagger 5.1 1.4 77 20 26 16.1 99.26     LegendNANA
06:00 Legend Double Dagger 5.1 1.6 78 21 26 16.1 99.31     LegendNANA
07:00 Legend Double Dagger 5.5 1.4 75 21 22 16.1 99.29     LegendNANA
08:00 Legend Double Dagger 7.0 1.6 69 22 28 16.1 99.33     LegendNANA
09:00 Legend Double Dagger 8.7 2.6 65 23 34 16.1 99.40     LegendNANA
10:00 Legend Double Dagger 10.4 1.8 55 26 26 16.1 99.51     LegendNANA
11:00 Legend Double Dagger 10.8 -0.7 45 27 24 16.1 99.67     LegendNANA
12:00 Legend Double Dagger 10.0 -2.6 41 26 26 16.1 99.84     LegendNANA
13:00 Legend Double Dagger 8.6 -3.2 43 29 30 16.1 99.89     LegendNANA
14:00 Legend Double Dagger 9.1 -4.9 37 27 35 16.1 100.01     LegendNANA
15:00 Legend Double Dagger 7.7 -5.1 40 27 15 16.1 100.12     LegendNANA
16:00 Legend Double Dagger 7.3 -5.0 41 28 28 16.1 100.22     LegendNANA
17:00 Legend Double Dagger 6.5 -4.9 44 26 18 16.1 100.33     LegendNANA
18:00 Legend Double Dagger 5.9 -4.9 46 27 15 16.1 100.44     LegendNANA
19:00 Legend Double Dagger 5.0 -5.2 48 28 18 16.1 100.59     LegendNANA
20:00 Legend Double Dagger 4.5 -5.3 49 27 13 16.1 100.68     LegendNANA
21:00 Legend Double Dagger 3.3 -4.9 55 25 18 16.1 100.76     LegendNANA
22:00 Legend Double Dagger 2.4 -4.9 59 25 13 16.1 100.87     LegendNANA
23:00 Legend Double Dagger 1.9 -4.9 61 26 15 16.1 100.95     LegendNANA

Notes on Data Quality.

Legend

  • E = Estimated
  • M = Missing
  • NA = Not Available
  • ‡ = Partner data that is not subject to review by the National Climate Archives
Date modified: